Time,TemperatureF,DewpointF,PressureIn,WindDirection,WindDirectionDegrees,WindSpeedMPH,WindSpeedGustMPH,Humidity,HourlyPrecipIn,Conditions,Clouds,dailyrainin,SoftwareType,DateUTC
2013-10-09 00:00:00,41.2,38.5,30.29,SW,217,0.0,2.0,90,0.00,,,0.00,Wunderground v.1.13,2013-10-09 04:00:00,
2013-10-09 00:30:00,41.1,38.4,30.30,SW,217,0.0,2.0,90,0.00,,,0.00,Wunderground v.1.13,2013-10-09 04:30:00,
2013-10-09 01:00:00,40.5,37.8,30.30,SW,217,0.0,2.0,90,0.00,,,0.00,Wunderground v.1.13,2013-10-09 05:00:00,
2013-10-09 01:30:00,39.6,37.2,30.31,SW,217,0.0,2.0,91,0.00,,,0.00,Wunderground v.1.13,2013-10-09 05:30:00,
2013-10-09 02:00:00,39.3,37.2,30.32,SW,217,0.0,2.0,92,0.00,,,0.00,Wunderground v.1.13,2013-10-09 06:00:00,
2013-10-09 02:30:00,39.3,37.2,30.32,SW,217,0.0,2.0,92,0.00,,,0.00,Wunderground v.1.13,2013-10-09 06:30:00,
2013-10-09 03:00:00,39.1,37.0,30.33,SW,217,0.0,2.0,92,0.00,,,0.00,Wunderground v.1.13,2013-10-09 07:00:00,
2013-10-09 03:30:00,38.8,36.7,30.32,SW,217,0.0,2.0,92,0.00,,,0.00,Wunderground v.1.13,2013-10-09 07:30:00,
2013-10-09 04:00:00,38.3,36.2,30.33,SW,217,0.0,2.0,92,0.00,,,0.00,Wunderground v.1.13,2013-10-09 08:00:00,
2013-10-09 04:30:00,37.9,35.8,30.33,SW,217,0.0,2.0,92,0.00,,,0.00,Wunderground v.1.13,2013-10-09 08:30:00,
2013-10-09 05:00:00,38.0,35.9,30.34,SW,217,0.0,2.0,92,0.00,,,0.00,Wunderground v.1.13,2013-10-09 09:00:00,
2013-10-09 05:30:00,37.9,35.8,30.34,SW,217,0.0,2.0,92,0.00,,,0.00,Wunderground v.1.13,2013-10-09 09:30:00,
2013-10-09 06:00:00,37.6,35.5,30.35,SW,217,0.0,2.0,92,0.00,,,0.00,Wunderground v.1.13,2013-10-09 10:00:00,
2013-10-09 06:30:00,37.6,35.5,30.36,SW,217,0.0,2.0,92,0.00,,,0.00,Wunderground v.1.13,2013-10-09 10:30:00,
2013-10-09 07:00:00,37.8,35.7,30.36,SW,217,0.0,2.0,92,0.00,,,0.00,Wunderground v.1.13,2013-10-09 11:00:00,
2013-10-09 07:30:00,37.2,35.1,30.36,SW,217,0.0,2.0,92,0.00,,,0.00,Wunderground v.1.13,2013-10-09 11:30:00,
2013-10-09 08:00:00,37.8,35.7,30.36,SW,217,0.0,2.0,92,0.00,,,0.00,Wunderground v.1.13,2013-10-09 12:00:00,
2013-10-09 08:30:00,39.1,37.2,30.37,SW,217,0.0,2.0,93,0.00,,,0.00,Wunderground v.1.13,2013-10-09 12:30:00,
2013-10-09 09:00:00,41.6,39.4,30.37,SW,217,0.0,2.0,92,0.00,,,0.00,Wunderground v.1.13,2013-10-09 13:00:00,
2013-10-09 09:30:00,47.4,41.9,30.37,SW,217,0.0,2.0,81,0.00,,,0.00,Wunderground v.1.13,2013-10-09 13:30:00,
2013-10-09 10:00:00,51.0,40.8,30.37,SW,217,0.0,2.0,68,0.00,,,0.00,Wunderground v.1.13,2013-10-09 14:00:00,
2013-10-09 10:30:00,54.1,40.9,30.38,SW,217,0.0,2.0,61,0.00,,,0.00,Wunderground v.1.13,2013-10-09 14:30:00,
2013-10-09 11:00:00,56.9,42.7,30.37,SW,217,0.0,2.0,59,0.00,,,0.00,Wunderground v.1.13,2013-10-09 15:00:00,
2013-10-09 11:30:00,58.9,43.2,30.36,SW,217,0.0,2.0,56,0.00,,,0.00,Wunderground v.1.13,2013-10-09 15:30:00,
2013-10-09 12:00:00,61.3,41.4,30.35,SW,217,1.0,2.0,48,0.00,,,0.00,Wunderground v.1.13,2013-10-09 16:00:00,
2013-10-09 12:30:00,62.4,41.9,30.35,SW,223,4.0,4.0,47,0.00,,,0.00,Wunderground v.1.13,2013-10-09 16:30:00,
2013-10-09 13:00:00,63.7,41.4,30.34,WSW,248,4.0,4.0,44,0.00,,,0.00,Wunderground v.1.13,2013-10-09 17:00:00,
2013-10-09 13:30:00,64.8,39.9,30.33,SW,231,3.0,9.0,40,0.00,,,0.00,Wunderground v.1.13,2013-10-09 17:30:00,
2013-10-09 14:00:00,65.3,41.0,30.32,SSW,207,4.0,6.0,41,0.00,,,0.00,Wunderground v.1.13,2013-10-09 18:00:00,
2013-10-09 14:30:00,66.0,40.3,30.31,SW,232,2.0,2.0,39,0.00,,,0.00,Wunderground v.1.13,2013-10-09 18:30:00,
2013-10-09 15:00:00,67.1,41.3,30.29,WSW,252,2.0,2.0,39,0.00,,,0.00,Wunderground v.1.13,2013-10-09 19:00:00,
2013-10-09 15:30:00,67.6,41.7,30.28,WSW,256,1.0,4.0,39,0.00,,,0.00,Wunderground v.1.13,2013-10-09 19:30:00,
2013-10-09 16:00:00,66.4,43.8,30.27,WSW,252,1.0,1.0,44,0.00,,,0.00,Wunderground v.1.13,2013-10-09 20:00:00,
2013-10-09 16:30:00,65.3,43.4,30.27,West,272,1.0,2.0,45,0.00,,,0.00,Wunderground v.1.13,2013-10-09 20:30:00,
2013-10-09 17:00:00,65.6,44.3,30.26,West,273,1.0,2.0,46,0.00,,,0.00,Wunderground v.1.13,2013-10-09 21:00:00,
2013-10-09 17:30:00,65.2,43.9,30.26,West,273,0.0,2.0,46,0.00,,,0.00,Wunderground v.1.13,2013-10-09 21:30:00,
2013-10-09 18:00:00,63.2,44.2,30.26,West,273,0.0,2.0,50,0.00,,,0.00,Wunderground v.1.13,2013-10-09 22:00:00,
2013-10-09 18:30:00,59.5,45.6,30.26,West,273,0.0,2.0,60,0.00,,,0.00,Wunderground v.1.13,2013-10-09 22:30:00,
2013-10-09 19:00:00,56.0,45.2,30.26,West,273,0.0,2.0,67,0.00,,,0.00,Wunderground v.1.13,2013-10-09 23:00:00,
2013-10-09 19:30:00,53.5,46.1,30.25,West,273,0.0,2.0,76,0.00,,,0.00,Wunderground v.1.13,2013-10-09 23:30:00,
2013-10-09 20:00:00,51.7,45.7,30.25,West,273,0.0,2.0,80,0.00,,,0.00,Wunderground v.1.13,2013-10-10 00:00:00,
2013-10-09 20:30:00,50.2,44.9,30.25,West,273,0.0,2.0,82,0.00,,,0.00,Wunderground v.1.13,2013-10-10 00:30:00,
2013-10-09 21:00:00,49.1,44.5,30.25,West,273,0.0,2.0,84,0.00,,,0.00,Wunderground v.1.13,2013-10-10 01:00:00,
2013-10-09 21:30:00,48.3,44.6,30.25,West,273,0.0,2.0,87,0.00,,,0.00,Wunderground v.1.13,2013-10-10 01:30:00,
2013-10-09 22:00:00,47.6,44.2,30.24,West,273,0.0,2.0,88,0.00,,,0.00,Wunderground v.1.13,2013-10-10 02:00:00,
2013-10-09 22:30:00,47.3,45.1,30.24,West,273,0.0,2.0,92,0.00,,,0.00,Wunderground v.1.13,2013-10-10 02:30:00,
2013-10-09 23:00:00,47.0,44.8,30.24,West,273,0.0,2.0,92,0.00,,,0.00,Wunderground v.1.13,2013-10-10 03:00:00,
2013-10-09 23:30:00,45.8,43.3,30.24,West,273,0.0,2.0,91,0.00,,,0.00,Wunderground v.1.13,2013-10-10 03:30:00,